Time,TemperatureF,DewpointF,PressureIn,WindDirection,WindDirectionDegrees,WindSpeedMPH,WindSpeedGustMPH,Humidity,HourlyPrecipIn,Conditions,Clouds,dailyrainin,SolarRadiationWatts/m^2,SoftwareType,DateUTC
2013-02-25 00:00:00,49.0,35.0,-100.00,East,95,8.0,-999.0,58,0.00,,,0.00,0.000000,,2013-02-25 06:00:00,
2013-02-25 00:32:00,49.0,35.0,-100.00,East,95,8.0,-999.0,58,0.00,,,0.00,0.000000,,2013-02-25 06:32:00,
2013-02-25 00:42:00,49.0,35.0,-100.00,East,95,8.0,-999.0,58,0.00,,,0.00,0.000000,,2013-02-25 06:42:00,
2013-02-25 00:52:00,49.0,35.0,-100.00,East,95,8.0,-999.0,58,0.00,,,0.00,0.000000,,2013-02-25 06:52:00,
2013-02-25 01:00:00,51.0,36.0,-100.00,East,98,11.0,-999.0,55,0.00,,,0.00,0.000000,,2013-02-25 07:00:00,
2013-02-25 01:32:00,51.0,36.0,-100.00,East,98,11.0,-999.0,55,0.00,,,0.00,0.000000,,2013-02-25 07:32:00,
2013-02-25 01:42:00,51.0,36.0,-100.00,East,98,11.0,-999.0,55,0.00,,,0.00,0.000000,,2013-02-25 07:42:00,
2013-02-25 01:52:00,51.0,36.0,-100.00,East,98,11.0,-999.0,55,0.00,,,0.00,0.000000,,2013-02-25 07:52:00,
2013-02-25 02:00:00,51.0,35.0,-100.00,East,98,15.0,-999.0,54,0.00,,,0.00,0.000000,,2013-02-25 08:00:00,
2013-02-25 02:32:00,51.0,35.0,-100.00,East,98,15.0,-999.0,54,0.00,,,0.00,0.000000,,2013-02-25 08:32:00,
2013-02-25 02:42:00,51.0,35.0,-100.00,East,98,15.0,-999.0,54,0.00,,,0.00,0.000000,,2013-02-25 08:42:00,
2013-02-25 02:52:00,51.0,35.0,-100.00,East,98,15.0,-999.0,54,0.00,,,0.00,0.000000,,2013-02-25 08:52:00,
2013-02-25 03:00:00,49.0,35.0,-100.00,NNE,30,7.0,-999.0,60,0.00,,,0.00,0.000000,,2013-02-25 09:00:00,
2013-02-25 03:32:00,49.0,35.0,-100.00,NNE,30,7.0,-999.0,60,0.00,,,0.00,0.000000,,2013-02-25 09:32:00,
2013-02-25 03:42:00,49.0,35.0,-100.00,NNE,30,7.0,-999.0,60,0.00,,,0.00,0.000000,,2013-02-25 09:42:00,
2013-02-25 03:52:00,49.0,35.0,-100.00,NNE,30,7.0,-999.0,60,0.00,,,0.00,0.000000,,2013-02-25 09:52:00,
2013-02-25 04:00:00,48.0,36.0,-100.00,NE,51,5.0,-999.0,63,0.00,,,0.00,0.000000,,2013-02-25 10:00:00,
2013-02-25 04:32:00,48.0,36.0,-100.00,NE,51,5.0,-999.0,63,0.00,,,0.00,0.000000,,2013-02-25 10:32:00,
2013-02-25 04:42:00,48.0,36.0,-100.00,NE,51,5.0,-999.0,63,0.00,,,0.00,0.000000,,2013-02-25 10:42:00,
2013-02-25 04:52:00,48.0,36.0,-100.00,NE,51,5.0,-999.0,63,0.00,,,0.00,0.000000,,2013-02-25 10:52:00,
2013-02-25 05:00:00,47.0,37.0,-100.00,East,86,4.0,-999.0,68,0.01,,,0.01,0.000000,,2013-02-25 11:00:00,
2013-02-25 05:32:00,47.0,37.0,-100.00,East,86,4.0,-999.0,68,0.01,,,0.01,0.000000,,2013-02-25 11:32:00,
2013-02-25 05:42:00,47.0,37.0,-100.00,East,86,4.0,-999.0,68,0.01,,,0.01,0.000000,,2013-02-25 11:42:00,
2013-02-25 05:52:00,47.0,37.0,-100.00,East,86,4.0,-999.0,68,0.01,,,0.01,0.000000,,2013-02-25 11:52:00,
2013-02-25 06:00:00,47.0,37.0,-100.00,East,100,13.0,-999.0,69,0.00,,,0.01,0.000000,,2013-02-25 12:00:00,
2013-02-25 06:32:00,47.0,37.0,-100.00,East,100,13.0,-999.0,69,0.00,,,0.01,0.000000,,2013-02-25 12:32:00,
2013-02-25 06:42:00,47.0,37.0,-100.00,East,100,13.0,-999.0,69,0.00,,,0.01,0.000000,,2013-02-25 12:42:00,
2013-02-25 06:55:00,47.0,37.0,-100.00,East,100,13.0,-999.0,69,0.00,,,0.01,0.000000,,2013-02-25 12:55:00,
2013-02-25 07:00:00,46.0,39.0,-100.00,ESE,106,10.0,-999.0,76,0.00,,,0.01,1.000000,,2013-02-25 13:00:00,
2013-02-25 07:32:00,46.0,39.0,-100.00,ESE,106,10.0,-999.0,76,0.00,,,0.01,1.000000,,2013-02-25 13:32:00,
2013-02-25 07:42:00,46.0,39.0,-100.00,ESE,106,10.0,-999.0,76,0.00,,,0.01,1.000000,,2013-02-25 13:42:00,
2013-02-25 07:52:00,46.0,39.0,-100.00,ESE,106,10.0,-999.0,76,0.00,,,0.01,1.000000,,2013-02-25 13:52:00,
2013-02-25 08:00:00,47.0,39.0,-100.00,ESE,109,10.0,-999.0,73,0.00,,,0.01,23.000000,,2013-02-25 14:00:00,
2013-02-25 08:32:00,47.0,39.0,-100.00,ESE,109,10.0,-999.0,73,0.00,,,0.01,23.000000,,2013-02-25 14:32:00,
2013-02-25 08:42:00,47.0,39.0,-100.00,ESE,109,10.0,-999.0,73,0.00,,,0.01,23.000000,,2013-02-25 14:42:00,
2013-02-25 08:52:00,47.0,39.0,-100.00,ESE,109,10.0,-999.0,73,0.00,,,0.01,23.000000,,2013-02-25 14:52:00,
2013-02-25 09:00:00,47.0,42.0,-100.00,ESE,121,8.0,-999.0,82,0.00,,,0.01,18.000000,,2013-02-25 15:00:00,
2013-02-25 09:32:00,47.0,42.0,-100.00,ESE,121,8.0,-999.0,82,0.00,,,0.01,18.000000,,2013-02-25 15:32:00,
2013-02-25 09:42:00,47.0,42.0,-100.00,ESE,121,8.0,-999.0,82,0.00,,,0.01,18.000000,,2013-02-25 15:42:00,
2013-02-25 09:52:00,47.0,42.0,-100.00,ESE,121,8.0,-999.0,82,0.00,,,0.01,18.000000,,2013-02-25 15:52:00,
2013-02-25 10:00:00,47.0,46.0,-100.00,South,186,3.0,-999.0,97,0.00,,,0.01,80.000000,,2013-02-25 16:00:00,
2013-02-25 10:32:00,47.0,46.0,-100.00,South,186,3.0,-999.0,97,0.00,,,0.01,80.000000,,2013-02-25 16:32:00,
2013-02-25 10:42:00,47.0,46.0,-100.00,South,186,3.0,-999.0,97,0.00,,,0.01,80.000000,,2013-02-25 16:42:00,
2013-02-25 10:52:00,47.0,46.0,-100.00,South,186,3.0,-999.0,97,0.00,,,0.01,80.000000,,2013-02-25 16:52:00,
2013-02-25 11:00:00,47.0,47.0,-100.00,NNE,31,3.0,-999.0,98,0.00,,,0.01,130.000000,,2013-02-25 17:00:00,
2013-02-25 11:32:00,47.0,47.0,-100.00,NNE,31,3.0,-999.0,98,0.00,,,0.01,130.000000,,2013-02-25 17:32:00,
2013-02-25 11:42:00,47.0,47.0,-100.00,NNE,31,3.0,-999.0,98,0.00,,,0.01,130.000000,,2013-02-25 17:42:00,
2013-02-25 11:52:00,47.0,47.0,-100.00,NNE,31,3.0,-999.0,98,0.00,,,0.01,130.000000,,2013-02-25 17:52:00,
2013-02-25 12:00:00,47.0,46.0,-100.00,NNE,15,8.0,-999.0,94,0.00,,,0.01,65.000000,,2013-02-25 18:00:00,
2013-02-25 12:32:00,47.0,46.0,-100.00,NNE,15,8.0,-999.0,94,0.00,,,0.01,65.000000,,2013-02-25 18:32:00,
2013-02-25 12:42:00,47.0,46.0,-100.00,NNE,15,8.0,-999.0,94,0.00,,,0.01,65.000000,,2013-02-25 18:42:00,
2013-02-25 12:52:00,47.0,46.0,-100.00,NNE,15,8.0,-999.0,94,0.00,,,0.01,65.000000,,2013-02-25 18:52:00,
2013-02-25 13:00:00,46.0,46.0,-100.00,SW,226,5.0,-999.0,98,0.02,,,0.03,16.000000,,2013-02-25 19:00:00,
2013-02-25 13:32:00,46.0,46.0,-100.00,SW,226,5.0,-999.0,98,0.02,,,0.03,16.000000,,2013-02-25 19:32:00,
2013-02-25 13:42:00,46.0,46.0,-100.00,SW,226,5.0,-999.0,98,0.02,,,0.03,16.000000,,2013-02-25 19:42:00,
2013-02-25 13:52:00,46.0,46.0,-100.00,SW,226,5.0,-999.0,98,0.02,,,0.03,16.000000,,2013-02-25 19:52:00,
2013-02-25 14:00:00,46.0,41.0,-100.00,West,265,15.0,-999.0,84,0.00,,,0.03,125.000000,,2013-02-25 20:00:00,
2013-02-25 14:32:00,46.0,41.0,-100.00,West,265,15.0,-999.0,84,0.00,,,0.03,125.000000,,2013-02-25 20:32:00,
2013-02-25 14:42:00,46.0,41.0,-100.00,West,265,15.0,-999.0,84,0.00,,,0.03,125.000000,,2013-02-25 20:42:00,
2013-02-25 14:52:00,46.0,41.0,-100.00,West,265,15.0,-999.0,84,0.00,,,0.03,125.000000,,2013-02-25 20:52:00,
2013-02-25 15:00:00,47.0,41.0,-100.00,West,265,7.0,-999.0,80,0.00,,,0.03,404.000000,,2013-02-25 21:00:00,
2013-02-25 15:32:00,47.0,41.0,-100.00,West,265,7.0,-999.0,80,0.00,,,0.03,404.000000,,2013-02-25 21:32:00,
2013-02-25 15:42:00,47.0,41.0,-100.00,West,265,7.0,-999.0,80,0.00,,,0.03,404.000000,,2013-02-25 21:42:00,
2013-02-25 15:52:00,47.0,41.0,-100.00,West,265,7.0,-999.0,80,0.00,,,0.03,404.000000,,2013-02-25 21:52:00,
2013-02-25 16:00:00,47.0,42.0,-100.00,WNW,298,4.0,-999.0,81,0.00,,,0.03,495.000000,,2013-02-25 22:00:00,
2013-02-25 16:32:00,47.0,42.0,-100.00,WNW,298,4.0,-999.0,81,0.00,,,0.03,495.000000,,2013-02-25 22:32:00,
2013-02-25 16:42:00,47.0,42.0,-100.00,WNW,298,4.0,-999.0,81,0.00,,,0.03,495.000000,,2013-02-25 22:42:00,
2013-02-25 16:52:00,47.0,42.0,-100.00,WNW,298,4.0,-999.0,81,0.00,,,0.03,495.000000,,2013-02-25 22:52:00,
2013-02-25 17:00:00,47.0,41.0,-100.00,WNW,294,5.0,-999.0,79,0.00,,,0.03,161.000000,,2013-02-25 23:00:00,
2013-02-25 17:32:00,47.0,41.0,-100.00,WNW,294,5.0,-999.0,79,0.00,,,0.03,161.000000,,2013-02-25 23:32:00,
2013-02-25 17:42:00,47.0,41.0,-100.00,WNW,294,5.0,-999.0,79,0.00,,,0.03,161.000000,,2013-02-25 23:42:00,
2013-02-25 17:52:00,47.0,41.0,-100.00,WNW,294,5.0,-999.0,79,0.00,,,0.03,161.000000,,2013-02-25 23:52:00,
2013-02-25 18:00:00,47.0,38.0,-100.00,West,273,8.0,-999.0,71,0.00,,,0.03,77.000000,,2013-02-26 00:00:00,
2013-02-25 18:32:00,47.0,38.0,-100.00,West,273,8.0,-999.0,71,0.00,,,0.03,77.000000,,2013-02-26 00:32:00,
2013-02-25 18:42:00,47.0,38.0,-100.00,West,273,8.0,-999.0,71,0.00,,,0.03,77.000000,,2013-02-26 00:42:00,
2013-02-25 18:52:00,47.0,38.0,-100.00,West,273,8.0,-999.0,71,0.00,,,0.03,77.000000,,2013-02-26 00:52:00,
2013-02-25 19:00:00,45.0,34.0,-100.00,West,263,11.0,-999.0,65,0.00,,,0.03,0.000000,,2013-02-26 01:00:00,
2013-02-25 19:32:00,45.0,34.0,-100.00,West,263,11.0,-999.0,65,0.00,,,0.03,0.000000,,2013-02-26 01:32:00,
2013-02-25 19:42:00,45.0,34.0,-100.00,West,263,11.0,-999.0,65,0.00,,,0.03,0.000000,,2013-02-26 01:42:00,
2013-02-25 19:52:00,45.0,34.0,-100.00,West,263,11.0,-999.0,65,0.00,,,0.03,0.000000,,2013-02-26 01:52:00,
2013-02-25 20:00:00,44.0,41.0,-100.00,West,268,13.0,-999.0,90,0.00,,,0.03,0.000000,,2013-02-26 02:00:00,
2013-02-25 20:32:00,44.0,41.0,-100.00,West,268,13.0,-999.0,90,0.00,,,0.03,0.000000,,2013-02-26 02:32:00,
2013-02-25 20:42:00,44.0,41.0,-100.00,West,268,13.0,-999.0,90,0.00,,,0.03,0.000000,,2013-02-26 02:42:00,
2013-02-25 20:52:00,44.0,41.0,-100.00,West,268,13.0,-999.0,90,0.00,,,0.03,0.000000,,2013-02-26 02:52:00,
2013-02-25 21:00:00,41.0,41.0,-100.00,West,266,16.0,-999.0,99,0.00,,,0.03,0.000000,,2013-02-26 03:00:00,
2013-02-25 21:42:00,41.0,41.0,-100.00,West,266,16.0,-999.0,99,0.00,,,0.03,0.000000,,2013-02-26 03:42:00,
2013-02-25 21:52:00,41.0,41.0,-100.00,West,266,16.0,-999.0,99,0.00,,,0.03,0.000000,,2013-02-26 03:52:00,
2013-02-25 22:00:00,39.0,35.0,-100.00,WSW,251,5.0,-999.0,86,0.00,,,0.03,0.000000,,2013-02-26 04:00:00,
2013-02-25 22:32:00,39.0,35.0,-100.00,WSW,251,5.0,-999.0,86,0.00,,,0.03,0.000000,,2013-02-26 04:32:00,
2013-02-25 22:42:00,39.0,35.0,-100.00,WSW,251,5.0,-999.0,86,0.00,,,0.03,0.000000,,2013-02-26 04:42:00,
2013-02-25 22:52:00,39.0,35.0,-100.00,WSW,251,5.0,-999.0,86,0.00,,,0.03,0.000000,,2013-02-26 04:52:00,
2013-02-25 23:00:00,40.0,35.0,-100.00,West,276,7.0,-999.0,85,0.00,,,0.03,0.000000,,2013-02-26 05:00:00,
2013-02-25 23:32:00,40.0,35.0,-100.00,West,276,7.0,-999.0,85,0.00,,,0.03,0.000000,,2013-02-26 05:32:00,
2013-02-25 23:43:00,40.0,35.0,-100.00,West,276,7.0,-999.0,85,0.00,,,0.03,0.000000,,2013-02-26 05:43:00,
2013-02-25 23:52:00,40.0,35.0,-100.00,West,276,7.0,-999.0,85,0.00,,,0.03,0.000000,,2013-02-26 05:52:00,